Terminal Aerodrome Forecast
Issued by NWS Paducah, KY

Home | Current Version | Previous Version | Text Only | Print | Product List | Glossary On
Versions: 1 2 3 4 5 6 7 8 9 10 11 12 13 14
000
FTUS43 KPAH 120500
TAFEVV
TAF
KEVV 120520Z 1206/1306 36007KT P6SM OVC015
      TEMPO 1210/1212 6SM BR BKN007
     FM121500 04008KT P6SM BKN015
     FM122000 02008KT P6SM BKN050=

USA.gov is the U.S. government's official web portal to all federal, state and local government web resources and services.